Change the Weather History Date:

Monday, February 25, 2013

  Actual Average Record
Temperature  
Mean Temperature 63 °F -  
Max Temperature 66 °F 63 °F 72 °F (2014)
Min Temperature 60 °F 49 °F 41 °F (1999)
Degree Days  
Heating Degree Days 2    
Growing Degree Days 13 (Base 50)    
Moisture  
Dew Point 59 °F    
Average Humidity 89    
Maximum Humidity 94    
Minimum Humidity 80    
Precipitation  
Precipitation 2.79 in - - ()
Sea Level Pressure  
Sea Level Pressure 29.73 in    
Wind  
Wind Speed 11 mph (East)    
Max Wind Speed 23 mph    
Max Gust Speed 33 mph    
Visibility 7 miles    
Events Rain , Thunderstorm    
Averages and records for this station are not official NWS values.
T = Trace of Precipitation, MM = Missing Value Source: NWS Daily Summary

Daily Weather History Graph

Daily Weather History Graph

Search for Another Location

Airport or City:

Trip Planner

Search our weather history database for the weather conditions in past years. The results will help you decide how hot, cold, wet, or windy it might be!

Date:

Astronomy

Feb. 25, 2013 Rise Set
Actual Time 6:16 AM CST 5:42 PM CST
Civil Twilight 5:51 AM CST 6:06 PM CST
Nautical Twilight 5:23 AM CST 6:34 PM CST
Astronomical Twilight 4:56 AM CST 7:02 PM CST
Moon 5:50 PM CST (2/25) 5:48 AM CST (2/25)
Length of Visible Light 12h 14m
Length of Day
11h 25m
Full, 100% of the Moon is Illuminated
Feb 25
Full
Feb 25
Full
Mar 4
Last Quarter
Mar 11
New
Mar 19
First Quarter

Hourly Weather History & Observations

Time (CST) Temp. Dew Point Humidity Pressure Visibility Wind Dir Wind Speed Gust Speed Precip Events Conditions
12:15 AM 60.8 °F 57.2 °F 88% 29.86 in 7.0 mi ENE 9.2 mph - 0.07 in Rain , Thunderstorm Light Rain
12:26 AM 60.8 °F 57.2 °F 88% 29.85 in 10.0 mi ENE 9.2 mph - 0.07 in Rain Light Rain
12:34 AM 60.8 °F 57.2 °F 88% 29.86 in 10.0 mi ENE 8.1 mph - 0.07 in Rain Light Rain
12:53 AM 61.0 °F 57.9 °F 90% 29.84 in 10.0 mi East 6.9 mph - 0.07 in   Overcast
1:25 AM 60.8 °F 57.2 °F 88% 29.86 in 10.0 mi North 13.8 mph 17.3 mph N/A   Overcast
1:29 AM 60.8 °F 57.2 °F 88% 29.85 in 10.0 mi North 13.8 mph 19.6 mph N/A Thunderstorm Overcast
1:53 AM 62.1 °F 59.0 °F 90% 29.83 in 4.0 mi ENE 10.4 mph - 0.16 in Rain , Thunderstorm Heavy Rain
2:03 AM 62.6 °F 59.0 °F 88% 29.82 in 4.0 mi ENE 10.4 mph - 0.06 in Rain Heavy Rain
2:23 AM 60.8 °F 57.2 °F 88% 29.82 in 6.0 mi ENE 6.9 mph 16.1 mph 0.15 in Rain , Thunderstorm Heavy Thunderstorms and Rain
2:53 AM 62.1 °F 59.0 °F 90% 29.81 in 6.0 mi East 8.1 mph - 0.21 in Rain , Thunderstorm Heavy Thunderstorms and Rain
3:02 AM 62.6 °F 59.0 °F 88% 29.80 in 4.0 mi ENE 8.1 mph - 0.05 in Rain , Thunderstorm Rain
3:53 AM 62.1 °F 59.0 °F 90% 29.80 in 10.0 mi East 6.9 mph - 0.11 in   Overcast
4:07 AM 60.8 °F 57.2 °F 88% 29.81 in 10.0 mi NNE 5.8 mph - N/A   Overcast
4:53 AM 62.1 °F 59.0 °F 90% 29.76 in 10.0 mi ENE 9.2 mph - N/A   Overcast
5:04 AM 62.6 °F 59.0 °F 88% 29.76 in 10.0 mi ENE 9.2 mph 16.1 mph N/A   Overcast
5:53 AM 62.1 °F 59.0 °F 90% 29.77 in 10.0 mi ENE 6.9 mph - N/A Thunderstorm Overcast
6:16 AM 62.6 °F 57.2 °F 82% 29.74 in 10.0 mi East 13.8 mph 20.7 mph N/A   Overcast
6:27 AM 62.6 °F 57.2 °F 82% 29.75 in 10.0 mi East 10.4 mph 23.0 mph 0.00 in Rain , Thunderstorm Light Rain
6:44 AM 62.6 °F 59.0 °F 88% 29.79 in 2.5 mi Variable 5.8 mph 21.9 mph 0.14 in Rain , Thunderstorm Heavy Thunderstorms and Rain
6:49 AM 62.6 °F 59.0 °F 88% 29.81 in 2.0 mi Variable 5.8 mph 20.7 mph 0.25 in Rain , Thunderstorm Heavy Thunderstorms and Rain
6:53 AM 62.1 °F 59.0 °F 90% 29.81 in 2.0 mi Variable 4.6 mph - 0.29 in Rain , Thunderstorm Heavy Thunderstorms and Rain
7:00 AM 62.6 °F 59.0 °F 88% 29.79 in 1.5 mi North 13.8 mph 18.4 mph 0.15 in Rain , Thunderstorm Heavy Thunderstorms and Rain
7:07 AM 60.8 °F 57.2 °F 88% 29.77 in 3.0 mi North 15.0 mph 20.7 mph 0.17 in Rain , Thunderstorm Thunderstorms and Rain
7:33 AM 60.8 °F 57.2 °F 88% 29.83 in 2.0 mi North 16.1 mph 20.7 mph 0.48 in Rain , Thunderstorm Heavy Thunderstorms and Rain
7:46 AM 60.8 °F 57.2 °F 88% 29.81 in 3.0 mi North 13.8 mph 19.6 mph 0.60 in Rain Heavy Rain
7:53 AM 61.0 °F 57.9 °F 90% 29.81 in 4.0 mi North 11.5 mph 20.7 mph 0.63 in Rain , Thunderstorm Heavy Rain
8:13 AM 60.8 °F 57.2 °F 88% 29.85 in 4.0 mi NNE 12.7 mph - 0.08 in Rain Heavy Rain
8:53 AM 61.0 °F 57.9 °F 90% 29.83 in 7.0 mi NNE 12.7 mph 20.7 mph 0.19 in Rain Rain
9:53 AM 61.0 °F 57.9 °F 90% 29.83 in 6.0 mi NE 11.5 mph 19.6 mph 0.08 in Rain Rain
10:53 AM 61.0 °F 57.9 °F 90% 29.80 in 3.0 mi East 20.7 mph 29.9 mph 0.20 in Rain Rain
11:04 AM 62.6 °F 57.2 °F 82% 29.81 in 10.0 mi East 12.7 mph 27.6 mph 0.00 in Rain Light Rain
11:53 AM 63.0 °F 57.9 °F 84% 29.79 in 10.0 mi East 15.0 mph 20.7 mph 0.01 in   Mostly Cloudy
12:53 PM 64.0 °F 57.9 °F 80% 29.75 in 10.0 mi East 13.8 mph 23.0 mph N/A   Overcast
1:53 PM 64.0 °F 57.9 °F 80% 29.74 in 10.0 mi East 15.0 mph 19.6 mph N/A   Mostly Cloudy
2:53 PM 64.0 °F 57.9 °F 80% 29.72 in 10.0 mi ESE 10.4 mph - N/A   Overcast
3:53 PM 63.0 °F 59.0 °F 87% 29.71 in 5.0 mi ESE 6.9 mph - 0.07 in Rain Rain
4:33 PM 62.6 °F 59.0 °F 88% 29.71 in 5.0 mi ESE 12.7 mph - 0.11 in Rain Rain
4:53 PM 63.0 °F 60.1 °F 90% 29.69 in 5.0 mi ESE 11.5 mph 24.2 mph 0.14 in Rain Rain
5:48 PM 62.6 °F 60.8 °F 94% 29.70 in 10.0 mi East 10.4 mph 19.6 mph 0.04 in   Overcast
5:53 PM 63.0 °F 60.1 °F 90% 29.69 in 10.0 mi ESE 12.7 mph - 0.04 in   Overcast
6:23 PM 62.6 °F 60.8 °F 94% 29.66 in 10.0 mi East 10.4 mph - N/A   Overcast
6:53 PM 64.0 °F 60.1 °F 87% 29.65 in 10.0 mi ESE 12.7 mph - N/A   Overcast
7:53 PM 63.0 °F 60.1 °F 90% 29.64 in 10.0 mi ESE 19.6 mph 29.9 mph 0.00 in   Overcast
8:09 PM 62.6 °F 60.8 °F 94% 29.64 in 10.0 mi ESE 18.4 mph 26.5 mph N/A   Overcast
8:34 PM 62.6 °F 60.8 °F 94% 29.64 in 10.0 mi ESE 16.1 mph 26.5 mph N/A   Overcast
8:53 PM 63.0 °F 61.0 °F 93% 29.64 in 10.0 mi ESE 20.7 mph 28.8 mph 0.00 in Rain Light Rain
9:20 PM 64.4 °F 60.8 °F 88% 29.64 in 10.0 mi SE 17.3 mph 27.6 mph 0.01 in Rain Light Rain
9:35 PM 64.4 °F 60.8 °F 88% 29.63 in 10.0 mi SE 23.0 mph 33.4 mph 0.01 in Rain Light Rain
9:53 PM 64.0 °F 61.0 °F 90% 29.64 in 10.0 mi SE 19.6 mph 29.9 mph 0.02 in Rain Light Rain
10:19 PM 64.4 °F 60.8 °F 88% 29.63 in 8.0 mi ESE 19.6 mph 28.8 mph 0.03 in Rain Rain
10:41 PM 64.4 °F 60.8 °F 88% 29.62 in 5.0 mi ESE 17.3 mph 25.3 mph 0.09 in Rain Rain
10:51 PM 64.4 °F 62.6 °F 94% 29.60 in 4.0 mi ESE 16.1 mph - 0.13 in Rain Heavy Rain
10:53 PM 64.0 °F 62.1 °F 93% 29.60 in 4.0 mi ESE 17.3 mph 23.0 mph 0.14 in Rain Rain
11:02 PM 64.4 °F 62.6 °F 94% 29.58 in 4.0 mi ESE 17.3 mph 25.3 mph 0.03 in Rain Rain
11:10 PM 64.4 °F 62.6 °F 94% 29.59 in 5.0 mi ESE 13.8 mph 23.0 mph 0.06 in Rain Rain
11:22 PM 64.4 °F 62.6 °F 94% 29.58 in 5.0 mi ESE 17.3 mph 27.6 mph 0.09 in Rain Rain
11:33 PM 64.4 °F 62.6 °F 94% 29.57 in 4.0 mi ESE 15.0 mph 23.0 mph 0.14 in Rain , Thunderstorm Heavy Thunderstorms and Rain
11:45 PM 64.4 °F 62.6 °F 94% 29.58 in 1.8 mi ESE 17.3 mph 23.0 mph 0.37 in Rain , Thunderstorm Heavy Thunderstorms and Rain
11:53 PM 66.0 °F 63.0 °F 90% 29.55 in 2.0 mi ESE 16.1 mph 23.0 mph 0.43 in Rain , Thunderstorm Heavy Thunderstorms and Rain
11:55 PM 66.2 °F 64.4 °F 94% 29.55 in 3.0 mi ESE 19.6 mph 27.6 mph 0.01 in Rain Heavy Rain